Time,TemperatureF,DewpointF,PressureIn,WindDirection,WindDirectionDegrees,WindSpeedMPH,WindSpeedGustMPH,Humidity,HourlyPrecipIn,Conditions,Clouds,dailyrainin,SoftwareType,DateUTC
2013-02-10 00:01:00,32.8,28.5,29.32,SSE,149,0.0,0.0,84,0.00,,,0.00,WeatherTracker,2013-02-10 06:01:00,
2013-02-10 00:06:00,32.8,28.5,29.32,SSE,149,0.0,0.0,84,0.00,,,0.00,WeatherTracker,2013-02-10 06:06:00,
2013-02-10 00:11:00,32.7,28.4,29.33,SSE,148,0.0,0.0,84,0.00,,,0.00,WeatherTracker,2013-02-10 06:11:00,
2013-02-10 00:16:00,32.6,28.3,29.33,SSE,149,0.0,0.0,84,0.00,,,0.00,WeatherTracker,2013-02-10 06:16:00,
2013-02-10 00:21:00,32.6,28.3,29.33,SSE,149,0.0,0.0,84,0.00,,,0.00,WeatherTracker,2013-02-10 06:21:00,
2013-02-10 00:26:00,32.7,28.4,29.32,SSE,149,0.0,0.0,84,0.00,,,0.00,WeatherTracker,2013-02-10 06:26:00,
2013-02-10 00:32:00,32.8,28.5,29.32,SSE,149,1.0,0.0,84,0.00,,,0.00,WeatherTracker,2013-02-10 06:32:00,
2013-02-10 00:37:00,32.9,28.6,29.32,SSE,149,0.0,0.0,84,0.00,,,0.00,WeatherTracker,2013-02-10 06:37:00,
2013-02-10 00:42:00,33.0,28.7,29.32,SSE,149,0.0,0.0,84,0.00,,,0.00,WeatherTracker,2013-02-10 06:42:00,
2013-02-10 00:47:00,33.1,28.8,29.32,SSE,148,0.0,0.0,84,0.00,,,0.00,WeatherTracker,2013-02-10 06:47:00,
2013-02-10 00:52:00,33.3,29.0,29.32,SSE,147,0.0,0.0,84,0.00,,,0.00,WeatherTracker,2013-02-10 06:52:00,
2013-02-10 00:57:00,33.5,29.2,29.32,SSE,155,0.0,0.0,84,0.00,,,0.00,WeatherTracker,2013-02-10 06:57:00,
2013-02-10 01:02:00,33.7,29.4,29.33,SSE,152,0.0,0.0,84,0.00,,,0.00,WeatherTracker,2013-02-10 07:02:00,
2013-02-10 01:07:00,33.8,29.2,29.32,SSE,155,2.0,0.0,83,0.00,,,0.00,WeatherTracker,2013-02-10 07:07:00,
2013-02-10 01:12:00,33.9,29.3,29.32,SSE,153,0.0,0.0,83,0.00,,,0.00,WeatherTracker,2013-02-10 07:12:00,
2013-02-10 01:17:00,34.0,29.4,29.32,SSE,152,0.0,0.0,83,0.00,,,0.00,WeatherTracker,2013-02-10 07:17:00,
2013-02-10 01:22:00,34.1,29.5,29.32,SSE,153,0.0,0.0,83,0.00,,,0.00,WeatherTracker,2013-02-10 07:22:00,
2013-02-10 01:27:00,34.1,29.5,29.32,SSE,153,3.0,0.0,83,0.00,,,0.00,WeatherTracker,2013-02-10 07:27:00,
2013-02-10 01:32:00,34.2,29.3,29.32,SSE,153,0.0,0.0,82,0.00,,,0.00,WeatherTracker,2013-02-10 07:32:00,
2013-02-10 01:37:00,34.3,29.4,29.32,SSE,150,0.0,0.0,82,0.00,,,0.00,WeatherTracker,2013-02-10 07:37:00,
2013-02-10 01:42:00,34.4,29.5,29.31,SSE,157,1.0,0.0,82,0.00,,,0.00,WeatherTracker,2013-02-10 07:42:00,
2013-02-10 01:47:00,34.4,29.5,29.31,SSE,155,0.0,0.0,82,0.00,,,0.00,WeatherTracker,2013-02-10 07:47:00,
2013-02-10 01:52:00,34.4,29.5,29.31,SE,146,0.0,0.0,82,0.00,,,0.00,WeatherTracker,2013-02-10 07:52:00,
2013-02-10 01:57:00,34.4,29.2,29.31,SSE,149,0.0,0.0,81,0.00,,,0.00,WeatherTracker,2013-02-10 07:57:00,
2013-02-10 02:02:00,34.4,29.2,29.31,SE,146,0.0,0.0,81,0.00,,,0.00,WeatherTracker,2013-02-10 08:02:00,
2013-02-10 02:07:00,34.5,29.3,29.30,SSE,149,1.0,0.0,81,0.00,,,0.00,WeatherTracker,2013-02-10 08:07:00,
2013-02-10 02:12:00,34.7,29.5,29.30,SSE,156,0.0,0.0,81,0.00,,,0.00,WeatherTracker,2013-02-10 08:12:00,
2013-02-10 02:17:00,34.9,29.7,29.30,SSE,150,2.0,0.0,81,0.00,,,0.00,WeatherTracker,2013-02-10 08:17:00,
2013-02-10 02:22:00,34.9,29.4,29.29,SE,146,1.0,0.0,80,0.00,,,0.00,WeatherTracker,2013-02-10 08:22:00,
2013-02-10 02:27:00,35.0,29.5,29.29,SSE,160,0.0,0.0,80,0.00,,,0.00,WeatherTracker,2013-02-10 08:27:00,
2013-02-10 02:32:00,35.0,29.5,29.29,SSE,162,0.0,0.0,80,0.00,,,0.00,WeatherTracker,2013-02-10 08:32:00,
2013-02-10 02:37:00,35.0,29.5,29.29,SSE,168,2.0,0.0,80,0.00,,,0.00,WeatherTracker,2013-02-10 08:37:00,
2013-02-10 02:42:00,35.1,29.6,29.29,SSE,154,2.0,0.0,80,0.00,,,0.00,WeatherTracker,2013-02-10 08:42:00,
2013-02-10 02:47:00,35.2,29.7,29.29,SSE,155,3.0,0.0,80,0.00,,,0.00,WeatherTracker,2013-02-10 08:47:00,
2013-02-10 02:52:00,35.2,29.7,29.29,SSE,161,3.0,0.0,80,0.00,,,0.00,WeatherTracker,2013-02-10 08:52:00,
2013-02-10 02:57:00,35.3,29.8,29.28,SSE,167,7.0,0.0,80,0.00,,,0.00,WeatherTracker,2013-02-10 08:57:00,
2013-02-10 03:02:00,35.4,29.9,29.28,SSE,153,6.0,0.0,80,0.00,,,0.00,WeatherTracker,2013-02-10 09:02:00,
2013-02-10 03:07:00,35.5,30.0,29.28,SSE,167,0.0,0.0,80,0.00,,,0.00,WeatherTracker,2013-02-10 09:07:00,
2013-02-10 03:12:00,35.5,30.0,29.28,SSE,155,4.0,0.0,80,0.00,,,0.00,WeatherTracker,2013-02-10 09:12:00,
2013-02-10 03:17:00,35.6,30.1,29.27,SSE,150,1.0,0.0,80,0.00,,,0.00,WeatherTracker,2013-02-10 09:17:00,
2013-02-10 03:23:00,35.6,30.1,29.27,SSE,149,1.0,0.0,80,0.00,,,0.00,WeatherTracker,2013-02-10 09:23:00,
2013-02-10 03:28:00,35.6,30.1,29.27,SSE,148,3.0,0.0,80,0.00,,,0.00,WeatherTracker,2013-02-10 09:28:00,
2013-02-10 03:33:00,35.7,30.1,29.26,SSE,148,0.0,0.0,80,0.00,,,0.00,WeatherTracker,2013-02-10 09:33:00,
2013-02-10 03:38:00,35.8,29.9,29.26,SSE,155,0.0,0.0,79,0.00,,,0.00,WeatherTracker,2013-02-10 09:38:00,
2013-02-10 03:43:00,35.9,30.0,29.26,SSE,155,0.0,0.0,79,0.00,,,0.00,WeatherTracker,2013-02-10 09:43:00,
2013-02-10 03:48:00,35.9,30.0,29.26,SSE,155,0.0,0.0,79,0.00,,,0.00,WeatherTracker,2013-02-10 09:48:00,
2013-02-10 03:53:00,35.9,30.0,29.26,SSE,155,0.0,0.0,79,0.00,,,0.00,WeatherTracker,2013-02-10 09:53:00,
2013-02-10 03:58:00,36.0,30.1,29.26,SSE,155,0.0,0.0,79,0.00,,,0.00,WeatherTracker,2013-02-10 09:58:00,
2013-02-10 04:03:00,36.0,30.1,29.25,SSE,155,0.0,0.0,79,0.00,,,0.00,WeatherTracker,2013-02-10 10:03:00,
2013-02-10 04:08:00,36.1,30.2,29.25,SSE,155,0.0,0.0,79,0.00,,,0.00,WeatherTracker,2013-02-10 10:08:00,
2013-02-10 04:13:00,36.0,30.1,29.25,SSE,155,0.0,0.0,79,0.00,,,0.00,WeatherTracker,2013-02-10 10:13:00,
2013-02-10 04:18:00,36.0,30.1,29.25,SSE,154,0.0,0.0,79,0.00,,,0.00,WeatherTracker,2013-02-10 10:18:00,
2013-02-10 04:23:00,36.1,30.5,29.25,SSE,153,0.0,0.0,80,0.00,,,0.00,WeatherTracker,2013-02-10 10:23:00,
2013-02-10 04:28:00,36.1,30.5,29.25,SSE,154,1.0,0.0,80,0.00,,,0.00,WeatherTracker,2013-02-10 10:28:00,
2013-02-10 04:33:00,36.1,30.5,29.25,SSE,153,2.0,0.0,80,0.00,,,0.00,WeatherTracker,2013-02-10 10:33:00,
2013-02-10 04:38:00,36.1,30.5,29.25,SSE,153,0.0,0.0,80,0.00,,,0.00,WeatherTracker,2013-02-10 10:38:00,
2013-02-10 04:43:00,36.1,30.5,29.25,SSE,154,2.0,0.0,80,0.00,,,0.00,WeatherTracker,2013-02-10 10:43:00,
2013-02-10 04:48:00,36.1,30.5,29.25,SSE,153,3.0,0.0,80,0.00,,,0.00,WeatherTracker,2013-02-10 10:48:00,
2013-02-10 04:53:00,36.1,30.8,29.25,SE,146,2.0,0.0,81,0.00,,,0.00,WeatherTracker,2013-02-10 10:53:00,
2013-02-10 04:58:00,36.2,30.9,29.24,SE,146,0.0,0.0,81,0.00,,,0.00,WeatherTracker,2013-02-10 10:58:00,
2013-02-10 05:03:00,36.3,31.0,29.25,SSE,152,2.0,0.0,81,0.00,,,0.00,WeatherTracker,2013-02-10 11:03:00,
2013-02-10 05:08:00,36.4,31.1,29.25,South,172,0.0,0.0,81,0.00,,,0.00,WeatherTracker,2013-02-10 11:08:00,
2013-02-10 05:13:00,36.5,31.2,29.24,SSE,153,0.0,0.0,81,0.00,,,0.00,WeatherTracker,2013-02-10 11:13:00,
2013-02-10 05:18:00,36.6,31.6,29.23,SSE,163,0.0,0.0,82,0.00,,,0.00,WeatherTracker,2013-02-10 11:18:00,
2013-02-10 05:23:00,36.6,31.6,29.23,SSE,158,2.0,0.0,82,0.00,,,0.00,WeatherTracker,2013-02-10 11:23:00,
2013-02-10 05:28:00,36.6,31.6,29.23,SSE,159,4.0,0.0,82,0.00,,,0.00,WeatherTracker,2013-02-10 11:28:00,
2013-02-10 05:34:00,36.6,31.6,29.23,SSE,162,3.0,0.0,82,0.00,,,0.00,WeatherTracker,2013-02-10 11:34:00,
2013-02-10 05:38:00,36.5,31.8,29.23,SSE,160,4.0,0.0,83,0.00,,,0.00,WeatherTracker,2013-02-10 11:38:00,
2013-02-10 05:44:00,36.5,31.8,29.23,SSE,154,1.0,0.0,83,0.00,,,0.00,WeatherTracker,2013-02-10 11:44:00,
2013-02-10 05:49:00,36.3,31.9,29.22,SSE,155,1.0,0.0,84,0.00,,,0.00,WeatherTracker,2013-02-10 11:49:00,
2013-02-10 05:54:00,36.3,31.9,29.22,SSE,164,0.0,0.0,84,0.00,,,0.00,WeatherTracker,2013-02-10 11:54:00,
2013-02-10 05:59:00,36.2,32.1,29.22,SSE,157,0.0,0.0,85,0.00,,,0.00,WeatherTracker,2013-02-10 11:59:00,
2013-02-10 06:04:00,36.2,32.1,29.21,SSE,162,0.0,0.0,85,0.00,,,0.00,WeatherTracker,2013-02-10 12:04:00,
2013-02-10 06:09:00,36.0,32.2,29.21,SSE,159,0.0,0.0,86,0.00,,,0.00,WeatherTracker,2013-02-10 12:09:00,
2013-02-10 06:14:00,35.9,32.1,29.21,SSE,159,0.0,0.0,86,0.00,,,0.00,WeatherTracker,2013-02-10 12:14:00,
2013-02-10 06:19:00,35.8,32.3,29.20,SSE,157,2.0,0.0,87,0.00,,,0.00,WeatherTracker,2013-02-10 12:19:00,
2013-02-10 06:24:00,35.8,32.3,29.20,SSE,150,0.0,0.0,87,0.00,,,0.00,WeatherTracker,2013-02-10 12:24:00,
2013-02-10 06:29:00,35.7,32.5,29.19,SSE,152,0.0,0.0,88,0.00,,,0.00,WeatherTracker,2013-02-10 12:29:00,
2013-02-10 06:34:00,35.7,32.5,29.19,SSE,152,0.0,0.0,88,0.00,,,0.00,WeatherTracker,2013-02-10 12:34:00,
2013-02-10 06:39:00,35.8,32.9,29.19,SSE,152,0.0,0.0,89,0.00,,,0.00,WeatherTracker,2013-02-10 12:39:00,
2013-02-10 06:44:00,35.9,33.0,29.18,SSE,152,0.0,0.0,89,0.00,,,0.00,WeatherTracker,2013-02-10 12:44:00,
2013-02-10 06:49:00,35.9,33.0,29.18,SSE,152,0.0,0.0,89,0.00,,,0.00,WeatherTracker,2013-02-10 12:49:00,
2013-02-10 06:54:00,35.9,33.0,29.17,SSE,153,0.0,0.0,89,0.00,,,0.00,WeatherTracker,2013-02-10 12:54:00,
2013-02-10 06:59:00,36.0,33.4,29.17,SSE,155,0.0,0.0,90,0.00,,,0.00,WeatherTracker,2013-02-10 12:59:00,
2013-02-10 07:04:00,36.1,33.5,29.17,SSE,153,3.0,0.0,90,0.00,,,0.00,WeatherTracker,2013-02-10 13:04:00,
2013-02-10 07:09:00,36.1,33.5,29.16,SSE,156,0.0,0.0,90,0.00,,,0.00,WeatherTracker,2013-02-10 13:09:00,
2013-02-10 07:14:00,36.2,33.6,29.16,SSE,153,6.0,0.0,90,0.00,,,0.00,WeatherTracker,2013-02-10 13:14:00,
2013-02-10 07:19:00,36.3,33.9,29.16,SE,146,0.0,0.0,91,0.00,,,0.00,WeatherTracker,2013-02-10 13:19:00,
2013-02-10 07:25:00,36.4,34.0,29.16,SSE,160,2.0,0.0,91,0.00,,,0.00,WeatherTracker,2013-02-10 13:25:00,
2013-02-10 07:30:00,36.4,34.0,29.15,SSE,151,0.0,0.0,91,0.00,,,0.00,WeatherTracker,2013-02-10 13:30:00,
2013-02-10 07:35:00,36.5,34.1,29.16,SSE,152,2.0,0.0,91,0.00,,,0.00,WeatherTracker,2013-02-10 13:35:00,
2013-02-10 07:40:00,36.6,34.2,29.16,SSE,150,1.0,0.0,91,0.00,,,0.00,WeatherTracker,2013-02-10 13:40:00,
2013-02-10 07:45:00,36.7,34.6,29.16,SSE,148,0.0,0.0,92,0.00,,,0.00,WeatherTracker,2013-02-10 13:45:00,
2013-02-10 07:50:00,36.8,34.7,29.16,SSE,153,3.0,0.0,92,0.00,,,0.00,WeatherTracker,2013-02-10 13:50:00,
2013-02-10 07:55:00,36.9,34.8,29.16,SSE,150,0.0,0.0,92,0.00,,,0.00,WeatherTracker,2013-02-10 13:55:00,
2013-02-10 08:00:00,36.9,34.8,29.15,SSE,155,6.0,0.0,92,0.00,,,0.00,WeatherTracker,2013-02-10 14:00:00,
2013-02-10 08:05:00,37.0,34.9,29.15,SSE,147,2.0,0.0,92,0.00,,,0.00,WeatherTracker,2013-02-10 14:05:00,
2013-02-10 08:10:00,37.0,34.9,29.16,SSE,155,4.0,0.0,92,0.00,,,0.00,WeatherTracker,2013-02-10 14:10:00,
2013-02-10 08:15:00,37.0,34.9,29.16,SSE,155,4.0,0.0,92,0.00,,,0.00,WeatherTracker,2013-02-10 14:15:00,
2013-02-10 08:20:00,37.1,35.0,29.16,SSE,167,1.0,0.0,92,0.00,,,0.00,WeatherTracker,2013-02-10 14:20:00,
2013-02-10 08:25:00,37.1,35.0,29.16,SSE,153,1.0,0.0,92,0.00,,,0.00,WeatherTracker,2013-02-10 14:25:00,
2013-02-10 08:30:00,37.2,35.1,29.15,South,169,2.0,0.0,92,0.00,,,0.00,WeatherTracker,2013-02-10 14:30:00,
2013-02-10 08:35:00,37.3,35.5,29.14,SSE,166,0.0,0.0,93,0.00,,,0.00,WeatherTracker,2013-02-10 14:35:00,
2013-02-10 08:40:00,37.6,35.8,29.14,SE,146,4.0,0.0,93,0.00,,,0.00,WeatherTracker,2013-02-10 14:40:00,
2013-02-10 08:45:00,37.8,36.0,29.14,SE,137,2.0,0.0,93,0.01,,,0.01,WeatherTracker,2013-02-10 14:45:00,
2013-02-10 08:50:00,37.9,36.1,29.14,SSE,162,10.0,0.0,93,0.01,,,0.01,WeatherTracker,2013-02-10 14:50:00,
2013-02-10 08:55:00,37.8,36.0,29.14,SSE,156,3.0,0.0,93,0.01,,,0.01,WeatherTracker,2013-02-10 14:55:00,
2013-02-10 09:00:00,37.8,36.0,29.14,SSE,166,2.0,0.0,93,0.01,,,0.01,WeatherTracker,2013-02-10 15:00:00,
2013-02-10 09:05:00,37.7,35.9,29.12,SSE,163,3.0,0.0,93,0.01,,,0.01,WeatherTracker,2013-02-10 15:05:00,
2013-02-10 09:10:00,37.6,35.8,29.12,SSE,163,10.0,0.0,93,0.01,,,0.01,WeatherTracker,2013-02-10 15:10:00,
2013-02-10 09:15:00,37.5,35.7,29.12,SE,141,2.0,0.0,93,0.01,,,0.01,WeatherTracker,2013-02-10 15:15:00,
2013-02-10 09:20:00,37.5,35.7,29.11,South,173,0.0,0.0,93,0.01,,,0.01,WeatherTracker,2013-02-10 15:20:00,
2013-02-10 09:25:00,37.4,35.6,29.11,SE,143,6.0,0.0,93,0.01,,,0.01,WeatherTracker,2013-02-10 15:25:00,
2013-02-10 09:30:00,37.5,35.7,29.11,SE,134,0.0,0.0,93,0.01,,,0.01,WeatherTracker,2013-02-10 15:30:00,
2013-02-10 09:35:00,37.5,35.7,29.11,SSE,165,4.0,0.0,93,0.01,,,0.01,WeatherTracker,2013-02-10 15:35:00,
2013-02-10 09:40:00,37.5,35.7,29.11,SSE,155,0.0,0.0,93,0.01,,,0.01,WeatherTracker,2013-02-10 15:40:00,
2013-02-10 09:45:00,37.5,35.7,29.12,SSE,148,4.0,0.0,93,0.01,,,0.02,WeatherTracker,2013-02-10 15:45:00,
2013-02-10 09:50:00,37.4,35.6,29.11,SE,146,8.0,0.0,93,0.01,,,0.02,WeatherTracker,2013-02-10 15:50:00,
2013-02-10 09:56:00,37.5,35.7,29.11,SSE,153,1.0,0.0,93,0.02,,,0.03,WeatherTracker,2013-02-10 15:56:00,
2013-02-10 10:01:00,37.5,35.7,29.10,SSE,147,3.0,0.0,93,0.03,,,0.04,WeatherTracker,2013-02-10 16:01:00,
2013-02-10 10:06:00,37.6,35.8,29.09,SSE,165,0.0,0.0,93,0.04,,,0.05,WeatherTracker,2013-02-10 16:06:00,
2013-02-10 10:11:00,37.6,35.8,29.08,SSE,155,9.0,0.0,93,0.05,,,0.06,WeatherTracker,2013-02-10 16:11:00,
2013-02-10 10:16:00,37.7,35.9,29.08,SE,137,2.0,0.0,93,0.05,,,0.06,WeatherTracker,2013-02-10 16:16:00,
2013-02-10 10:21:00,37.9,36.1,29.07,SSE,163,0.0,0.0,93,0.06,,,0.07,WeatherTracker,2013-02-10 16:21:00,
2013-02-10 10:26:00,38.0,36.2,29.07,SSE,151,1.0,0.0,93,0.07,,,0.08,WeatherTracker,2013-02-10 16:26:00,
2013-02-10 10:31:00,38.2,36.4,29.06,SSE,159,4.0,0.0,93,0.08,,,0.09,WeatherTracker,2013-02-10 16:31:00,
2013-02-10 10:36:00,38.4,36.6,29.07,SSE,157,5.0,0.0,93,0.09,,,0.10,WeatherTracker,2013-02-10 16:36:00,
2013-02-10 10:41:00,38.5,36.7,29.07,SE,136,3.0,0.0,93,0.10,,,0.11,WeatherTracker,2013-02-10 16:41:00,
2013-02-10 10:46:00,38.6,36.8,29.06,South,173,3.0,0.0,93,0.10,,,0.12,WeatherTracker,2013-02-10 16:46:00,
2013-02-10 10:51:00,38.5,36.7,29.05,SE,145,4.0,0.0,93,0.11,,,0.13,WeatherTracker,2013-02-10 16:51:00,
2013-02-10 10:56:00,38.5,36.7,29.05,SE,146,1.0,0.0,93,0.11,,,0.14,WeatherTracker,2013-02-10 16:56:00,
2013-02-10 11:01:00,38.5,36.7,29.05,SE,143,4.0,0.0,93,0.11,,,0.15,WeatherTracker,2013-02-10 17:01:00,
2013-02-10 11:06:00,38.4,36.6,29.04,SE,144,7.0,0.0,93,0.11,,,0.16,WeatherTracker,2013-02-10 17:06:00,
2013-02-10 11:11:00,38.4,36.6,29.04,SE,124,4.0,0.0,93,0.11,,,0.17,WeatherTracker,2013-02-10 17:11:00,
2013-02-10 11:16:00,38.4,36.6,29.03,SE,136,0.0,0.0,93,0.13,,,0.19,WeatherTracker,2013-02-10 17:16:00,
2013-02-10 11:21:00,38.3,36.5,29.03,SSE,159,6.0,0.0,93,0.12,,,0.20,WeatherTracker,2013-02-10 17:21:00,
2013-02-10 11:26:00,38.3,36.5,29.02,SSE,157,5.0,0.0,93,0.13,,,0.21,WeatherTracker,2013-02-10 17:26:00,
2013-02-10 11:32:00,38.3,36.5,29.02,SE,141,4.0,0.0,93,0.13,,,0.22,WeatherTracker,2013-02-10 17:32:00,
2013-02-10 11:37:00,38.4,36.6,29.01,South,186,6.0,0.0,93,0.13,,,0.23,WeatherTracker,2013-02-10 17:37:00,
2013-02-10 11:42:00,38.6,36.8,29.01,SSE,163,5.0,0.0,93,0.12,,,0.24,WeatherTracker,2013-02-10 17:42:00,
2013-02-10 11:47:00,38.7,36.9,29.01,South,190,3.0,0.0,93,0.12,,,0.24,WeatherTracker,2013-02-10 17:47:00,
2013-02-10 11:52:00,38.7,36.9,29.00,SSE,161,0.0,0.0,93,0.12,,,0.25,WeatherTracker,2013-02-10 17:52:00,
2013-02-10 11:57:00,38.8,37.0,29.00,SSE,155,2.0,0.0,93,0.11,,,0.25,WeatherTracker,2013-02-10 17:57:00,
2013-02-10 12:02:00,39.0,37.4,28.99,SE,144,2.0,0.0,94,0.10,,,0.25,WeatherTracker,2013-02-10 18:02:00,
2013-02-10 12:07:00,39.2,37.3,28.98,SSE,152,3.0,0.0,93,0.10,,,0.26,WeatherTracker,2013-02-10 18:07:00,
2013-02-10 12:12:00,39.3,37.4,28.98,SE,141,1.0,0.0,93,0.09,,,0.26,WeatherTracker,2013-02-10 18:12:00,
2013-02-10 12:17:00,39.5,37.6,28.97,SE,130,1.0,0.0,93,0.07,,,0.26,WeatherTracker,2013-02-10 18:17:00,
2013-02-10 12:22:00,39.6,38.0,28.96,SSE,157,4.0,0.0,94,0.07,,,0.27,WeatherTracker,2013-02-10 18:22:00,
2013-02-10 12:27:00,39.7,38.1,28.96,SE,145,1.0,0.0,94,0.07,,,0.28,WeatherTracker,2013-02-10 18:27:00,
2013-02-10 12:32:00,39.9,38.3,28.95,SSE,149,3.0,0.0,94,0.07,,,0.29,WeatherTracker,2013-02-10 18:32:00,
2013-02-10 12:37:00,40.0,38.4,28.95,SSE,159,0.0,0.0,94,0.08,,,0.31,WeatherTracker,2013-02-10 18:37:00,
2013-02-10 12:42:00,40.2,38.6,28.94,South,185,5.0,0.0,94,0.08,,,0.32,WeatherTracker,2013-02-10 18:42:00,
2013-02-10 12:47:00,40.5,38.9,28.94,SSE,157,4.0,0.0,94,0.09,,,0.33,WeatherTracker,2013-02-10 18:47:00,
2013-02-10 12:52:00,40.8,39.2,28.94,SE,138,5.0,0.0,94,0.09,,,0.34,WeatherTracker,2013-02-10 18:52:00,
2013-02-10 12:57:00,41.0,39.4,28.93,SE,124,9.0,0.0,94,0.09,,,0.34,WeatherTracker,2013-02-10 18:57:00,
2013-02-10 13:02:00,41.0,39.4,28.92,South,189,5.0,0.0,94,0.08,,,0.34,WeatherTracker,2013-02-10 19:02:00,
2013-02-10 13:07:00,41.2,39.6,28.92,SSE,157,4.0,0.0,94,0.09,,,0.35,WeatherTracker,2013-02-10 19:07:00,
2013-02-10 13:12:00,41.3,39.7,28.91,SSE,148,7.0,0.0,94,0.09,,,0.35,WeatherTracker,2013-02-10 19:12:00,
2013-02-10 13:17:00,41.6,40.0,28.89,SSE,161,0.0,0.0,94,0.09,,,0.35,WeatherTracker,2013-02-10 19:17:00,
2013-02-10 13:22:00,41.8,40.2,28.89,SE,130,11.0,0.0,94,0.08,,,0.35,WeatherTracker,2013-02-10 19:22:00,
2013-02-10 13:27:00,42.0,40.4,28.89,SSE,151,4.0,0.0,94,0.08,,,0.36,WeatherTracker,2013-02-10 19:27:00,
2013-02-10 13:32:00,42.2,40.6,28.88,SE,130,6.0,0.0,94,0.06,,,0.36,WeatherTracker,2013-02-10 19:32:00,
2013-02-10 13:37:00,42.4,40.8,28.88,SSE,152,5.0,0.0,94,0.05,,,0.36,WeatherTracker,2013-02-10 19:37:00,
2013-02-10 13:42:00,42.7,41.1,28.87,South,175,4.0,0.0,94,0.04,,,0.36,WeatherTracker,2013-02-10 19:42:00,
2013-02-10 13:47:00,42.9,41.3,28.87,SSE,159,1.0,0.0,94,0.03,,,0.36,WeatherTracker,2013-02-10 19:47:00,
2013-02-10 13:52:00,43.0,41.7,28.87,SSE,160,5.0,0.0,95,0.02,,,0.36,WeatherTracker,2013-02-10 19:52:00,
2013-02-10 13:58:00,43.2,41.9,28.86,SSW,209,5.0,0.0,95,0.02,,,0.36,WeatherTracker,2013-02-10 19:58:00,
2013-02-10 14:03:00,43.3,41.7,28.86,ESE,111,6.0,0.0,94,0.02,,,0.36,WeatherTracker,2013-02-10 20:03:00,
2013-02-10 14:08:00,43.4,41.8,28.85,SSE,155,5.0,0.0,94,0.01,,,0.36,WeatherTracker,2013-02-10 20:08:00,
2013-02-10 14:13:00,43.7,42.4,28.85,SE,146,14.0,0.0,95,0.01,,,0.36,WeatherTracker,2013-02-10 20:13:00,
2013-02-10 14:18:00,43.8,42.2,28.85,South,177,9.0,0.0,94,0.01,,,0.36,WeatherTracker,2013-02-10 20:18:00,
2013-02-10 14:23:00,44.0,42.4,28.85,West,259,2.0,0.0,94,0.01,,,0.36,WeatherTracker,2013-02-10 20:23:00,
2013-02-10 14:28:00,44.2,42.6,28.85,SSE,155,4.0,0.0,94,0.00,,,0.36,WeatherTracker,2013-02-10 20:28:00,
2013-02-10 14:33:00,44.5,42.9,28.85,SE,132,10.0,0.0,94,0.00,,,0.36,WeatherTracker,2013-02-10 20:33:00,
2013-02-10 14:38:00,44.7,43.1,28.85,SW,215,0.0,0.0,94,0.00,,,0.36,WeatherTracker,2013-02-10 20:38:00,
2013-02-10 14:43:00,44.8,43.2,28.85,SSE,157,2.0,0.0,94,0.00,,,0.36,WeatherTracker,2013-02-10 20:43:00,
2013-02-10 14:48:00,45.0,43.4,28.84,South,190,3.0,0.0,94,0.00,,,0.36,WeatherTracker,2013-02-10 20:48:00,
2013-02-10 14:53:00,45.2,43.6,28.84,SSE,153,14.0,0.0,94,0.00,,,0.36,WeatherTracker,2013-02-10 20:53:00,
2013-02-10 14:58:00,45.3,43.7,28.84,South,190,10.0,0.0,94,0.00,,,0.36,WeatherTracker,2013-02-10 20:58:00,
2013-02-10 15:03:00,45.4,43.8,28.84,SSE,163,2.0,0.0,94,0.00,,,0.36,WeatherTracker,2013-02-10 21:03:00,
2013-02-10 15:09:00,45.6,44.0,28.82,South,190,15.0,0.0,94,0.00,,,0.36,WeatherTracker,2013-02-10 21:09:00,
2013-02-10 15:14:00,45.8,44.2,28.83,SSE,150,4.0,0.0,94,0.00,,,0.36,WeatherTracker,2013-02-10 21:14:00,
2013-02-10 15:19:00,45.8,44.2,28.83,SSE,156,12.0,0.0,94,0.00,,,0.36,WeatherTracker,2013-02-10 21:19:00,
2013-02-10 15:24:00,46.0,44.4,28.83,SSE,152,3.0,0.0,94,0.00,,,0.36,WeatherTracker,2013-02-10 21:24:00,
2013-02-10 15:29:00,46.2,44.3,28.83,SSE,155,7.0,0.0,93,0.00,,,0.36,WeatherTracker,2013-02-10 21:29:00,
2013-02-10 15:34:00,46.3,44.4,28.83,WNW,299,0.0,0.0,93,0.00,,,0.36,WeatherTracker,2013-02-10 21:34:00,
2013-02-10 15:39:00,46.3,44.4,28.83,SSW,206,1.0,0.0,93,0.00,,,0.36,WeatherTracker,2013-02-10 21:39:00,
2013-02-10 15:44:00,46.4,44.5,28.82,SSE,154,5.0,0.0,93,0.00,,,0.36,WeatherTracker,2013-02-10 21:44:00,
2013-02-10 15:49:00,46.4,44.5,28.82,SSE,163,0.0,0.0,93,0.00,,,0.36,WeatherTracker,2013-02-10 21:49:00,
2013-02-10 15:54:00,46.3,44.4,28.82,SE,142,13.0,0.0,93,0.00,,,0.36,WeatherTracker,2013-02-10 21:54:00,
2013-02-10 15:59:00,46.4,44.5,28.82,SSE,154,8.0,0.0,93,0.00,,,0.36,WeatherTracker,2013-02-10 21:59:00,
2013-02-10 16:04:00,46.4,44.5,28.82,SW,228,10.0,0.0,93,0.00,,,0.36,WeatherTracker,2013-02-10 22:04:00,
2013-02-10 16:09:00,46.3,44.4,28.81,SSW,197,2.0,0.0,93,0.00,,,0.36,WeatherTracker,2013-02-10 22:09:00,
2013-02-10 16:14:00,46.2,44.3,28.81,SSE,150,3.0,0.0,93,0.00,,,0.36,WeatherTracker,2013-02-10 22:14:00,
2013-02-10 16:19:00,46.2,44.3,28.81,South,170,4.0,0.0,93,0.01,,,0.37,WeatherTracker,2013-02-10 22:19:00,
2013-02-10 16:24:00,46.3,44.4,28.81,SSE,150,1.0,0.0,93,0.02,,,0.38,WeatherTracker,2013-02-10 22:24:00,
2013-02-10 16:29:00,46.3,44.7,28.82,WSW,254,0.0,0.0,94,0.03,,,0.39,WeatherTracker,2013-02-10 22:29:00,
2013-02-10 16:34:00,46.3,44.7,28.81,WNW,283,6.0,0.0,94,0.03,,,0.39,WeatherTracker,2013-02-10 22:34:00,
2013-02-10 16:39:00,46.3,44.7,28.81,South,177,9.0,0.0,94,0.04,,,0.40,WeatherTracker,2013-02-10 22:39:00,
2013-02-10 16:44:00,46.3,44.7,28.81,SSW,198,3.0,0.0,94,0.04,,,0.40,WeatherTracker,2013-02-10 22:44:00,
2013-02-10 16:50:00,46.3,44.7,28.80,South,173,16.0,0.0,94,0.05,,,0.41,WeatherTracker,2013-02-10 22:50:00,
2013-02-10 16:55:00,46.2,44.6,28.81,SSE,147,10.0,0.0,94,0.05,,,0.41,WeatherTracker,2013-02-10 22:55:00,
2013-02-10 17:00:00,46.3,44.7,28.81,SSE,158,3.0,0.0,94,0.05,,,0.41,WeatherTracker,2013-02-10 23:00:00,
2013-02-10 17:05:00,46.4,44.8,28.81,SSW,210,1.0,0.0,94,0.05,,,0.41,WeatherTracker,2013-02-10 23:05:00,
2013-02-10 17:10:00,46.5,44.9,28.81,SSW,207,1.0,0.0,94,0.05,,,0.41,WeatherTracker,2013-02-10 23:10:00,
2013-02-10 17:15:00,46.6,45.0,28.80,South,172,3.0,0.0,94,0.04,,,0.41,WeatherTracker,2013-02-10 23:15:00,
2013-02-10 17:20:00,46.7,45.1,28.80,SE,145,7.0,0.0,94,0.04,,,0.41,WeatherTracker,2013-02-10 23:20:00,
2013-02-10 17:25:00,46.7,45.1,28.80,SW,236,5.0,0.0,94,0.03,,,0.41,WeatherTracker,2013-02-10 23:25:00,
2013-02-10 17:30:00,46.8,45.4,28.80,SW,233,1.0,0.0,95,0.02,,,0.41,WeatherTracker,2013-02-10 23:30:00,
2013-02-10 17:35:00,46.9,45.5,28.81,SSW,197,2.0,0.0,95,0.01,,,0.41,WeatherTracker,2013-02-10 23:35:00,
2013-02-10 17:40:00,46.9,45.5,28.80,WSW,252,5.0,0.0,95,0.01,,,0.41,WeatherTracker,2013-02-10 23:40:00,
2013-02-10 17:45:00,46.9,45.5,28.80,SSE,158,5.0,0.0,95,0.00,,,0.41,WeatherTracker,2013-02-10 23:45:00,
2013-02-10 17:50:00,47.2,45.8,28.80,WSW,244,3.0,0.0,95,0.00,,,0.41,WeatherTracker,2013-02-10 23:50:00,
2013-02-10 17:55:00,47.3,45.9,28.80,SE,144,5.0,0.0,95,0.00,,,0.41,WeatherTracker,2013-02-10 23:55:00,
2013-02-10 18:00:00,47.3,45.7,28.80,South,188,11.0,0.0,94,0.00,,,0.41,WeatherTracker,2013-02-11 00:00:00,
2013-02-10 18:05:00,47.5,46.1,28.80,SSW,195,5.0,0.0,95,0.00,,,0.41,WeatherTracker,2013-02-11 00:05:00,
2013-02-10 18:11:00,47.6,46.2,28.80,SSW,194,5.0,0.0,95,0.00,,,0.41,WeatherTracker,2013-02-11 00:11:00,
2013-02-10 18:16:00,47.7,46.3,28.80,South,169,5.0,0.0,95,0.00,,,0.41,WeatherTracker,2013-02-11 00:16:00,
2013-02-10 18:21:00,47.8,46.2,28.80,SSE,150,15.0,0.0,94,0.00,,,0.41,WeatherTracker,2013-02-11 00:21:00,
2013-02-10 18:26:00,47.9,46.3,28.80,WSW,238,1.0,0.0,94,0.00,,,0.41,WeatherTracker,2013-02-11 00:26:00,
2013-02-10 18:31:00,47.9,46.5,28.80,SSE,157,7.0,0.0,95,0.00,,,0.41,WeatherTracker,2013-02-11 00:31:00,
2013-02-10 18:36:00,48.0,46.4,28.79,SSE,155,9.0,0.0,94,0.00,,,0.41,WeatherTracker,2013-02-11 00:36:00,
2013-02-10 18:41:00,48.1,46.5,28.79,South,169,6.0,0.0,94,0.00,,,0.41,WeatherTracker,2013-02-11 00:41:00,
2013-02-10 18:46:00,48.2,46.6,28.78,South,175,3.0,0.0,94,0.00,,,0.41,WeatherTracker,2013-02-11 00:46:00,
2013-02-10 18:51:00,48.3,46.7,28.78,West,259,3.0,0.0,94,0.00,,,0.41,WeatherTracker,2013-02-11 00:51:00,
2013-02-10 18:56:00,48.4,46.8,28.78,South,179,5.0,0.0,94,0.00,,,0.41,WeatherTracker,2013-02-11 00:56:00,
2013-02-10 19:01:00,48.4,46.8,28.78,South,182,4.0,0.0,94,0.00,,,0.41,WeatherTracker,2013-02-11 01:01:00,
2013-02-10 19:06:00,48.5,46.9,28.78,South,171,18.0,0.0,94,0.00,,,0.41,WeatherTracker,2013-02-11 01:06:00,
2013-02-10 19:11:00,48.7,47.1,28.78,WSW,247,6.0,0.0,94,0.00,,,0.41,WeatherTracker,2013-02-11 01:11:00,
2013-02-10 19:16:00,48.8,47.2,28.78,SSE,147,4.0,0.0,94,0.00,,,0.41,WeatherTracker,2013-02-11 01:16:00,
2013-02-10 19:21:00,48.7,47.1,28.77,SW,214,2.0,0.0,94,0.00,,,0.41,WeatherTracker,2013-02-11 01:21:00,
2013-02-10 19:27:00,48.7,47.1,28.77,South,169,5.0,0.0,94,0.00,,,0.41,WeatherTracker,2013-02-11 01:27:00,
2013-02-10 19:32:00,48.8,47.2,28.78,SSE,161,22.0,0.0,94,0.00,,,0.41,WeatherTracker,2013-02-11 01:32:00,
2013-02-10 19:37:00,48.8,47.2,28.77,SE,132,11.0,0.0,94,0.00,,,0.41,WeatherTracker,2013-02-11 01:37:00,
2013-02-10 19:42:00,48.8,46.9,28.77,SSE,156,9.0,0.0,93,0.00,,,0.41,WeatherTracker,2013-02-11 01:42:00,
2013-02-10 19:47:00,48.8,46.9,28.77,South,175,3.0,0.0,93,0.00,,,0.41,WeatherTracker,2013-02-11 01:47:00,
2013-02-10 19:52:00,48.8,46.9,28.77,South,187,0.0,0.0,93,0.00,,,0.41,WeatherTracker,2013-02-11 01:52:00,
2013-02-10 19:57:00,48.8,46.9,28.77,SW,219,9.0,0.0,93,0.00,,,0.41,WeatherTracker,2013-02-11 01:57:00,
2013-02-10 20:02:00,48.8,46.9,28.76,South,184,1.0,0.0,93,0.00,,,0.41,WeatherTracker,2013-02-11 02:02:00,
2013-02-10 20:07:00,48.8,46.9,28.76,SSE,152,11.0,0.0,93,0.00,,,0.41,WeatherTracker,2013-02-11 02:07:00,
2013-02-10 20:12:00,48.8,46.9,28.77,WSW,249,7.0,0.0,93,0.00,,,0.41,WeatherTracker,2013-02-11 02:12:00,
2013-02-10 20:17:00,48.8,46.9,28.76,SW,215,3.0,0.0,93,0.00,,,0.41,WeatherTracker,2013-02-11 02:17:00,
2013-02-10 20:22:00,48.8,46.9,28.76,South,171,2.0,0.0,93,0.00,,,0.41,WeatherTracker,2013-02-11 02:22:00,
2013-02-10 20:27:00,48.8,46.9,28.76,South,171,4.0,0.0,93,0.00,,,0.41,WeatherTracker,2013-02-11 02:27:00,
2013-02-10 20:32:00,48.9,47.0,28.75,South,175,14.0,0.0,93,0.00,,,0.41,WeatherTracker,2013-02-11 02:32:00,
2013-02-10 20:37:00,48.9,47.0,28.76,SSE,167,3.0,0.0,93,0.00,,,0.41,WeatherTracker,2013-02-11 02:37:00,
2013-02-10 20:42:00,48.9,47.0,28.76,WSW,251,4.0,0.0,93,0.00,,,0.41,WeatherTracker,2013-02-11 02:42:00,
2013-02-10 20:47:00,48.9,47.0,28.76,South,174,2.0,0.0,93,0.00,,,0.41,WeatherTracker,2013-02-11 02:47:00,
2013-02-10 20:52:00,48.9,47.0,28.76,ESE,121,4.0,0.0,93,0.00,,,0.41,WeatherTracker,2013-02-11 02:52:00,
2013-02-10 20:57:00,48.8,46.9,28.76,SSE,162,4.0,0.0,93,0.00,,,0.41,WeatherTracker,2013-02-11 02:57:00,
2013-02-10 21:02:00,48.7,46.8,28.76,SSE,159,6.0,0.0,93,0.00,,,0.41,WeatherTracker,2013-02-11 03:02:00,
2013-02-10 21:07:00,48.5,46.6,28.76,SSE,155,8.0,0.0,93,0.00,,,0.41,WeatherTracker,2013-02-11 03:07:00,
2013-02-10 21:12:00,48.3,46.4,28.76,SSE,152,7.0,0.0,93,0.00,,,0.41,WeatherTracker,2013-02-11 03:12:00,
2013-02-10 21:17:00,48.0,46.1,28.77,SSW,193,1.0,0.0,93,0.00,,,0.41,WeatherTracker,2013-02-11 03:17:00,
2013-02-10 21:22:00,47.8,45.9,28.76,SSE,147,1.0,0.0,93,0.00,,,0.41,WeatherTracker,2013-02-11 03:22:00,
2013-02-10 21:27:00,47.6,45.7,28.77,SSE,149,5.0,0.0,93,0.00,,,0.41,WeatherTracker,2013-02-11 03:27:00,
2013-02-10 21:32:00,47.5,45.6,28.77,South,179,4.0,0.0,93,0.00,,,0.41,WeatherTracker,2013-02-11 03:32:00,
2013-02-10 21:37:00,47.3,45.4,28.77,SSW,213,2.0,0.0,93,0.00,,,0.41,WeatherTracker,2013-02-11 03:37:00,
2013-02-10 21:42:00,47.1,45.2,28.77,SSE,163,5.0,0.0,93,0.00,,,0.41,WeatherTracker,2013-02-11 03:42:00,
2013-02-10 21:47:00,46.9,45.0,28.77,SW,231,5.0,0.0,93,0.00,,,0.41,WeatherTracker,2013-02-11 03:47:00,
2013-02-10 21:53:00,46.7,44.8,28.77,SSE,166,4.0,0.0,93,0.00,,,0.41,WeatherTracker,2013-02-11 03:53:00,
2013-02-10 21:58:00,46.6,44.7,28.77,South,169,3.0,0.0,93,0.00,,,0.41,WeatherTracker,2013-02-11 03:58:00,
2013-02-10 22:03:00,46.6,44.7,28.78,South,170,0.0,0.0,93,0.00,,,0.41,WeatherTracker,2013-02-11 04:03:00,
2013-02-10 22:08:00,46.5,44.6,28.77,SSE,158,1.0,0.0,93,0.00,,,0.41,WeatherTracker,2013-02-11 04:08:00,
2013-02-10 22:13:00,46.5,44.6,28.77,SSE,156,4.0,0.0,93,0.00,,,0.41,WeatherTracker,2013-02-11 04:13:00,
2013-02-10 22:18:00,46.6,44.7,28.78,WSW,237,0.0,0.0,93,0.00,,,0.41,WeatherTracker,2013-02-11 04:18:00,
2013-02-10 22:23:00,46.6,44.7,28.78,South,171,4.0,0.0,93,0.00,,,0.41,WeatherTracker,2013-02-11 04:23:00,
2013-02-10 22:28:00,46.4,44.5,28.78,South,172,1.0,0.0,93,0.00,,,0.41,WeatherTracker,2013-02-11 04:28:00,
2013-02-10 22:33:00,46.3,44.4,28.77,South,182,2.0,0.0,93,0.00,,,0.41,WeatherTracker,2013-02-11 04:33:00,
2013-02-10 22:38:00,46.1,44.2,28.78,SW,221,0.0,0.0,93,0.00,,,0.41,WeatherTracker,2013-02-11 04:38:00,
2013-02-10 22:43:00,45.9,44.0,28.78,South,171,0.0,0.0,93,0.00,,,0.41,WeatherTracker,2013-02-11 04:43:00,
2013-02-10 22:48:00,45.8,43.6,28.77,SSW,210,1.0,0.0,92,0.00,,,0.41,WeatherTracker,2013-02-11 04:48:00,
2013-02-10 22:53:00,45.6,43.4,28.78,South,173,3.0,0.0,92,0.00,,,0.41,WeatherTracker,2013-02-11 04:53:00,
2013-02-10 22:58:00,45.5,43.3,28.78,SSE,157,4.0,0.0,92,0.00,,,0.41,WeatherTracker,2013-02-11 04:58:00,
2013-02-10 23:00:00,45.5,43.3,28.78,SE,141,9.0,0.0,92,0.00,,,0.41,WeatherTracker,2013-02-11 05:00:00,
2013-02-10 23:05:00,45.3,43.1,28.78,South,173,2.0,0.0,92,0.00,,,0.41,WeatherTracker,2013-02-11 05:05:00,
2013-02-10 23:11:00,45.2,42.7,28.78,SSE,164,5.0,0.0,91,0.00,,,0.41,WeatherTracker,2013-02-11 05:11:00,
2013-02-10 23:16:00,45.2,42.4,28.78,SSE,157,0.0,0.0,90,0.00,,,0.41,WeatherTracker,2013-02-11 05:16:00,
2013-02-10 23:21:00,45.2,42.2,28.78,SSE,164,5.0,0.0,89,0.00,,,0.41,WeatherTracker,2013-02-11 05:21:00,
2013-02-10 23:26:00,45.2,41.3,28.79,WSW,247,3.0,0.0,86,0.00,,,0.41,WeatherTracker,2013-02-11 05:26:00,
2013-02-10 23:31:00,45.5,40.0,28.79,SW,236,6.0,0.0,81,0.00,,,0.41,WeatherTracker,2013-02-11 05:31:00,
2013-02-10 23:36:00,45.8,39.0,28.78,WSW,250,11.0,0.0,77,0.00,,,0.41,WeatherTracker,2013-02-11 05:36:00,
2013-02-10 23:41:00,45.9,38.1,28.79,SW,218,21.0,0.0,74,0.00,,,0.41,WeatherTracker,2013-02-11 05:41:00,
2013-02-10 23:46:00,46.0,37.5,28.79,SW,232,4.0,0.0,72,0.00,,,0.41,WeatherTracker,2013-02-11 05:46:00,
2013-02-10 23:51:00,45.9,37.4,28.80,SW,235,4.0,0.0,72,0.00,,,0.41,WeatherTracker,2013-02-11 05:51:00,
2013-02-10 23:56:00,45.8,36.9,28.80,SSW,205,0.0,0.0,71,0.00,,,0.41,WeatherTracker,2013-02-11 05:56:00,